Dati Storici

Data ora Umidita' aria (%) Temperatura aria (°C) Rad globale (W/m²) Gonioanemometro (°) Tacoanemometro (m/s) Pioggia (mm)
11-06-2020 17:30 66.8 % 21.216 -76.737 -0.012 0 0
11-06-2020 17:20 66.7 % 21.197 -73.016 2.117 0 0
11-06-2020 17:10 68.7 % 20.398 -71.392 -0.006 0 0
11-06-2020 17:00 67.5 % 20.426 -71.848 -0.006 0 0
11-06-2020 16:50 69.1 % 20.38 -70.205 -0.007 0 0
11-06-2020 16:40 68.8 % 20.212 -70.876 -0.007 0 0
11-06-2020 16:30 69.2 % 20.492 -71.545 0.956 0 0
11-06-2020 16:20 69.3 % 20.686 -70.909 -0.006 0 0
11-06-2020 16:10 67.2 % 20.426 -69.864 1.673 0 0
11-06-2020 16:00 68.3 % 20.719 -70.315 1.045 0 0
11-06-2020 15:50 63.4 % 20.924 -72.511 1.343 0 0
11-06-2020 15:40 64.5 % 20.772 -72.961 1.83 0 0
11-06-2020 15:30 65 % 21.657 -70.591 1.468 0 0
11-06-2020 15:20 65.9 % 21.362 -70.759 1.308 0 0
11-06-2020 15:10 67.2 % 20.792 -62.188 -0.002 0 0
11-06-2020 15:00 66.5 % 20.157 -67.985 1.532 0 0
11-06-2020 14:50 66.8 % 20.081 -68.113 2.044 0 0
11-06-2020 14:40 67.4 % 20.486 -71.974 0.83 0 0
11-06-2020 14:30 66.4 % 19.985 -70.472 1.478 0 0
11-06-2020 14:20 67.1 % 20.452 -69.485 2.091 0 0

I dati sono presentati in modo automatico a scopo informativo. In seguito a verifica i dati possono subire modifiche o essere invalidati e non riportati negli archivi definitivi.